Weather History for Vitoria, Spain

Change the Weather History Date:

Sunday, February 17, 2013

  Actual Average Record
Temperature  
Mean Temperature 39 °F -  
Max Temperature 50 °F 55 °F 64 °F (1998)
Min Temperature 28 °F 34 °F 26 °F (2009)
Degree Days  
Heating Degree Days 26    
Moisture  
Dew Point 37 °F    
Average Humidity 90    
Maximum Humidity 100    
Minimum Humidity 71    
Precipitation  
Precipitation 0.00 in - - ()
Sea Level Pressure  
Sea Level Pressure 29.92 in    
Wind  
Wind Speed 3 mph ()    
Max Wind Speed 14 mph    
Max Gust Speed -    
Visibility 4.8 miles    
Events Fog    
Averages and records for this station are not official NWS values.
T = Trace of Precipitation, MM = Missing Value Source: Averaged Metar Reports

Daily Weather History Graph

Daily Weather History Graph

Search for Another Location

Airport:

Trip Planner

Search our weather history database for the weather conditions in past years. The results will help you decide how hot, cold, wet, or windy it might be!

Date:

Astronomy

Feb. 17, 2013 Rise Set
Actual Time 8:05 AM CET 6:45 PM CET
Civil Twilight 7:36 AM CET 7:14 PM CET
Nautical Twilight 7:03 AM CET 7:47 PM CET
Astronomical Twilight 6:30 AM CET 8:19 PM CET
Moon 11:36 AM CET (2/17) 1:38 AM CET (2/17)
Length of Visible Light 11h 37m
Length of Day
10h 39m
Waxing Crescent, 46% of the Moon is Illuminated
Feb 17
Waxing Crescent
Feb 17
First Quarter
Feb 25
Full
Mar 4
Last Quarter
Mar 11
New

Hourly Weather History & Observations

Time (CET) Temp. Windchill Dew Point Humidity Pressure Visibility Wind Dir Wind Speed Gust Speed Precip Events Conditions
12:00 AM 33.8 °F - 33.8 °F 100% 30.01 in - NE 2.3 mph - N/A   Clear
12:30 AM 33.8 °F - 33.8 °F 100% 30.01 in - Calm Calm - N/A   Clear
1:00 AM 33.8 °F - 33.8 °F 100% 30.01 in - Calm Calm - N/A   Clear
1:30 AM 32.0 °F - 32.0 °F 100% 30.01 in - Calm Calm - N/A   Clear
2:00 AM 32.0 °F - 32.0 °F 100% 30.01 in - Calm Calm - N/A   Clear
2:30 AM 32.0 °F - 32.0 °F 100% 30.01 in - NE 2.3 mph - N/A   Clear
3:00 AM 32.0 °F 28.7 °F 32.0 °F 100% 29.98 in - NE 3.5 mph - N/A   Clear
3:30 AM 30.2 °F - 30.2 °F 100% 29.98 in - Calm Calm - N/A   Clear
4:00 AM 30.2 °F - 30.2 °F 100% 29.98 in - Calm Calm - N/A   Clear
4:30 AM 30.2 °F - 30.2 °F 100% 29.98 in - Calm Calm - N/A   Clear
5:00 AM 30.2 °F - 30.2 °F 100% 29.98 in 3.1 mi Calm Calm - N/A   Mist
5:30 AM 30.2 °F - 30.2 °F 100% 29.98 in 5.0 mi Calm Calm - N/A   Unknown
6:00 AM 30.2 °F - 30.2 °F 100% 29.95 in 3.1 mi NE 2.3 mph - N/A   Mist
6:30 AM 30.2 °F - 30.2 °F 100% 29.95 in 0.6 mi Calm Calm - N/A Fog Patches of Fog
7:00 AM 30.2 °F - 30.2 °F 100% 29.95 in 0.3 mi ENE 1.2 mph - N/A Fog Light Freezing Fog
7:30 AM 30.2 °F - 30.2 °F 100% 29.95 in 1.2 mi ENE 1.2 mph - N/A   Mist
8:00 AM 30.2 °F - 30.2 °F 100% 29.95 in 1.2 mi Calm Calm - N/A   Mist
8:30 AM 28.4 °F - 28.4 °F 100% 29.95 in 1.2 mi Calm Calm - N/A Fog Patches of Fog
9:00 AM 30.2 °F - 30.2 °F 100% 29.95 in 0.6 mi Calm Calm - N/A Fog Patches of Fog
9:30 AM 32.0 °F - 32.0 °F 100% 29.95 in 1.9 mi Variable 1.2 mph - N/A   Mist
10:00 AM 35.6 °F - 35.6 °F 100% 29.95 in 5.0 mi East 1.2 mph - N/A   Unknown
10:30 AM 39.2 °F - 39.2 °F 100% 29.95 in 5.0 mi Calm Calm - N/A   Unknown
11:00 AM 42.8 °F 37.5 °F 39.2 °F 87% 29.95 in 5.0 mi SW 9.2 mph - N/A   Unknown
11:30 AM 42.8 °F 36.2 °F 41.0 °F 93% 29.95 in - SW 12.7 mph - N/A   Clear
12:00 PM 44.6 °F 39.2 °F 41.0 °F 87% 29.95 in - SW 10.4 mph - N/A   Clear
12:30 PM 46.4 °F 44.3 °F 41.0 °F 81% 29.92 in - WSW 4.6 mph - N/A   Clear
1:00 PM 48.2 °F - 41.0 °F 76% 29.92 in - Calm Calm - N/A   Clear
1:30 PM 50.0 °F - 41.0 °F 71% 29.89 in - WSW 4.6 mph - N/A   Clear
2:00 PM 48.2 °F - 42.8 °F 82% 29.89 in 6.2 mi WSW 12.7 mph - N/A   Partly Cloudy
2:30 PM 48.2 °F - 41.0 °F 76% 29.89 in 6.2 mi SW 11.5 mph - N/A   Partly Cloudy
3:00 PM 50.0 °F - 42.8 °F 76% 29.86 in 6.2 mi SSW 9.2 mph - N/A   Partly Cloudy
3:30 PM 50.0 °F - 42.8 °F 76% 29.86 in 6.2 mi SW 13.8 mph - N/A   Partly Cloudy
4:00 PM 48.2 °F - 42.8 °F 82% 29.86 in 6.2 mi SW 10.4 mph - N/A   Partly Cloudy
4:30 PM 48.2 °F - 42.8 °F 82% 29.86 in 6.2 mi SW 9.2 mph - N/A   Partly Cloudy
5:00 PM 48.2 °F - 41.0 °F 76% 29.86 in 6.2 mi SW 8.1 mph - N/A   Partly Cloudy
5:30 PM 46.4 °F 41.9 °F 41.0 °F 81% 29.86 in 6.2 mi SW 9.2 mph - N/A   Partly Cloudy
6:00 PM 46.4 °F 42.4 °F 41.0 °F 81% 29.86 in 6.2 mi SW 8.1 mph - N/A   Partly Cloudy
6:30 PM 44.6 °F 40.7 °F 41.0 °F 87% 29.86 in 6.2 mi SSW 6.9 mph - N/A   Partly Cloudy
7:00 PM 44.6 °F 39.2 °F 41.0 °F 87% 29.86 in 6.2 mi SW 10.4 mph - N/A   Partly Cloudy
7:30 PM 44.6 °F 39.2 °F 39.2 °F 81% 29.86 in 6.2 mi WSW 10.4 mph - N/A   Partly Cloudy
8:00 PM 44.6 °F 39.7 °F 41.0 °F 87% 29.86 in 6.2 mi West 9.2 mph - N/A   Partly Cloudy
8:30 PM 44.6 °F 40.7 °F 41.0 °F 87% 29.86 in 6.2 mi West 6.9 mph - N/A   Partly Cloudy
9:00 PM 44.6 °F 38.4 °F 39.2 °F 81% 29.83 in 6.2 mi SW 12.7 mph - N/A   Partly Cloudy
9:30 PM 44.6 °F 39.2 °F 39.2 °F 81% 29.83 in 6.2 mi WSW 10.4 mph - N/A   Partly Cloudy
10:00 PM 44.6 °F 38.4 °F 39.2 °F 81% 29.86 in 6.2 mi SW 12.7 mph - N/A   Partly Cloudy
10:30 PM 44.6 °F 39.2 °F 39.2 °F 81% 29.86 in 6.2 mi SW 10.4 mph - N/A   Partly Cloudy
11:00 PM 44.6 °F 38.8 °F 39.2 °F 81% 29.86 in 6.2 mi SW 11.5 mph - N/A   Partly Cloudy
11:30 PM 44.6 °F 38.8 °F 39.2 °F 81% 29.86 in 6.2 mi WSW 11.5 mph - N/A   Partly Cloudy